Theta_e
311 312 325 338 339 341 344 346 347 346 347 347 347 348 347 347 347 346 346 345 344 343 343 342 340 342 344 345 345 346 346 345 346 347 347 347 348 347 348 348 348 347 350
309 312 327 343 343 343 343 344 345 345 345 346 346 347 347 347 346 346 346 346 346 345 344 343 343 341 340 342 344 343 344 344 343 344 345 347 346 346 346 347 346 347 347
308 317 332 340 341 341 341 341 342 344 345 345 346 346 346 346 346 346 346 346 346 345 345 344 343 342 342 342 341 342 341 340 340 342 344 344 342 346 345 346 345 345 346
311 322 330 336 337 337 337 337 339 340 342 343 344 344 344 344 344 343 342 342 342 343 344 344 344 343 342 342 342 342 341 340 340 341 339 338 340 345 344 344 344 343 345
314 322 328 332 333 333 333 333 333 334 335 337 339 339 339 339 339 339 338 338 338 338 338 340 341 343 343 342 342 342 341 340 340 335 335 338 340 342 346 346 343 341 343
313 319 324 328 328 328 328 329 329 329 330 331 331 333 331 331 332 332 332 332 334 335 335 335 337 339 341 342 342 342 341 340 338 332 329 331 333 339 342 345 345 344 345
311 313 317 323 324 324 324 324 324 324 324 325 326 325 327 327 327 327 327 327 328 329 330 331 332 333 335 336 339 339 340 338 337 335 332 332 334 338 340 343 344 345 344
308 309 311 313 316 317 318 319 318 319 319 318 318 319 319 321 321 321 321 322 323 324 324 325 326 327 330 331 332 332 332 335 336 336 337 333 337 337 338 341 344 344 343
306 307 309 310 310 311 311 312 312 313 312 312 312 312 312 312 313 314 314 316 317 318 319 319 321 321 322 325 326 325 328 330 335 335 335 337 340 341 340 339 340 343 344
302 305 306 307 307 307 304 306 307 307 307 307 307 306 307 308 308 308 308 309 311 312 313 314 315 315 315 318 320 319 325 330 327 330 333 335 337 341 341 341 340 340 342
301 302 303 303 304 303 303 301 303 304 304 304 303 304 304 301 301 302 304 305 306 307 308 309 310 310 311 316 319 318 322 321 322 327 329 331 332 335 338 341 341 341 340
298 298 299 300 300 300 300 300 300 299 299 298 298 299 299 299 299 300 303 304 304 304 305 306 307 307 307 303 305 311 309 311 315 320 324 329 328 330 332 334 337 340 340
296 296 297 298 299 299 298 299 298 298 298 298 296 297 298 298 298 298 299 299 299 302 299 299 299 299 299 300 301 300 302 303 307 312 317 326 323 325 328 330 332 335 339
296 296 296 297 297 298 298 297 297 296 297 296 296 295 296 296 296 296 297 297 297 297 296 297 297 297 297 297 298 298 298 299 301 304 309 319 315 316 320 325 329 331 334
294 295 295 296 296 296 297 297 296 295 295 295 295 294 294 294 293 294 295 295 295 295 295 294 295 295 295 296 296 296 296 297 298 301 302 310 313 311 313 318 324 328 331
294 294 294 294 295 295 295 295 295 295 295 294 294 293 293 293 292 293 293 293 293 293 294 294 293 293 293 294 294 295 295 296 297 297 299 300 309 311 309 314 319 324 328
293 293 293 293 294 294 294 294 294 294 294 293 293 293 292 292 291 292 292 292 292 292 293 293 292 293 292 293 292 293 295 294 295 295 296 298 301 307 312 311 312 315 319
293 292 292 292 293 293 293 294 293 293 293 293 292 292 291 291 291 291 291 291 291 291 292 291 291 291 291 291 291 292 292 293 293 295 296 297 298 299 304 309 309 311 314
292 292 291 292 292 292 293 293 293 293 292 292 292 291 290 290 290 290 290 290 290 290 290 290 290 289 289 290 290 291 291 292 293 293 294 296 298 301 303 311 315 313 319
291 291 291 291 291 292 293 293 293 292 292 292 291 290 290 289 289 289 289 289 290 289 289 289 288 289 289 289 288 288 291 291 293 294 295 297 298 298 306 303 303 307 312
290 290 290 290 290 291 291 291 291 289 290 290 290 290 289 289 289 288 288 288 289 288 288 288 288 287 288 289 287 287 289 292 292 293 294 292 293 295 297 297 297 298 301
289 290 289 289 289 289 289 289 289 289 290 290 290 289 289 288 288 287 287 287 287 287 287 287 286 286 287 288 284 285 283 286 291 289 290 292 291 293 293 293 293 294 296
288 289 288 288 288 288 288 289 289 290 290 289 288 288 288 288 287 287 287 286 286 286 286 286 286 285 283 285 286 283 280 280 283 287 287 289 290 290 291 292 292 293 293
289 289 289 288 288 287 287 287 286 286 285 286 286 287 287 287 287 287 287 286 286 286 285 286 286 285 284 283 285 286 285 284 280 279 285 287 288 288 290 291 291 291 291
289 288 288 288 287 286 286 286 286 285 285 286 286 285 286 286 287 286 286 286 285 285 285 285 285 284 285 283 283 283 283 284 284 281 278 282 286 287 289 289 289 289 290
288 288 287 287 286 286 285 285 284 284 284 283 284 283 284 285 285 286 286 285 285 285 284 285 284 284 284 284 284 283 282 281 281 281 279 280 281 284 286 288 288 289 290
Wind_Speed
10 19 23 11 5 7 13 15 16 15 14 14 14 14 15 16 17 17 16 16 16 17 17 17 17 16 16 16 17 17 16 13 13 11 9 9 10 8 7 7 6 9 10
15 18 27 16 19 18 19 20 19 19 18 15 15 16 18 17 17 16 17 17 16 16 16 16 16 16 16 15 16 16 16 14 12 9 5 6 10 9 8 8 6 7 8
13 14 12 24 23 22 22 21 20 21 20 21 21 20 20 20 19 19 19 18 18 17 16 15 14 14 14 14 14 14 15 15 13 11 12 4 8 10 9 9 6 4 5
10 11 14 23 23 22 22 20 20 21 21 22 22 22 22 21 22 21 21 21 20 20 20 18 15 13 13 13 13 12 13 14 14 15 6 8 6 11 9 7 7 3 3
7 12 15 21 21 20 19 20 21 20 20 21 22 22 22 22 21 21 21 21 20 20 19 20 20 18 14 12 11 12 12 12 12 13 7 7 7 13 12 9 5 1 2
8 10 17 19 18 19 20 20 21 21 21 21 21 22 21 21 22 22 22 21 22 21 21 21 21 21 19 17 15 14 13 13 16 8 6 5 5 11 11 10 6 5 3
8 8 11 18 19 20 20 20 21 21 20 20 21 20 20 20 20 21 22 21 21 21 21 20 20 19 19 19 19 18 15 14 10 8 6 5 7 9 11 11 10 7 6
7 7 8 12 17 18 19 19 19 19 20 20 19 19 19 20 21 21 22 22 21 21 21 21 20 19 17 17 17 17 15 13 11 10 6 6 10 10 9 10 11 10 9
6 6 7 7 8 16 17 18 18 20 19 20 19 17 17 19 19 21 21 22 21 21 21 20 20 20 18 17 17 18 17 15 10 7 9 7 13 14 13 11 10 11 10
7 8 8 7 8 8 10 15 17 18 18 18 18 16 15 16 16 18 20 19 21 19 20 20 20 19 18 15 16 19 18 14 11 7 5 7 17 16 14 13 13 12 9
8 8 9 9 8 8 8 10 11 14 16 17 14 15 11 10 12 13 16 17 18 19 18 19 19 18 18 13 11 15 16 7 10 7 5 9 13 15 18 17 15 14 14
7 8 8 8 7 6 6 7 8 9 9 11 12 12 9 10 10 11 10 15 17 19 18 19 18 18 15 10 8 11 7 10 8 8 6 9 12 14 15 16 18 18 16
7 7 7 7 7 7 8 6 5 5 6 7 14 13 11 9 9 8 7 7 9 14 9 12 11 9 13 10 9 10 10 10 7 7 9 10 14 17 18 17 16 16 18
8 7 7 7 8 8 6 6 7 7 7 8 10 14 10 7 10 10 8 10 10 9 13 11 8 12 13 13 13 13 13 10 8 7 9 13 18 20 20 19 19 18 18
8 8 8 7 7 8 8 6 7 7 7 8 9 12 10 9 9 9 9 8 9 9 10 10 10 11 12 13 12 13 14 14 13 7 7 15 16 21 22 21 21 20 20
8 8 7 8 8 7 7 8 6 6 7 7 7 8 10 8 8 8 8 8 8 9 9 9 10 10 10 11 13 14 14 13 14 14 9 11 18 18 22 22 21 21 21
7 7 7 7 6 6 7 6 6 5 5 5 6 9 10 10 10 9 8 8 9 9 11 10 10 10 10 10 13 12 11 14 13 14 12 10 11 16 18 19 21 21 21
9 8 6 6 6 6 6 5 4 5 5 6 6 6 10 10 10 9 8 8 9 8 9 9 9 9 10 10 10 10 10 12 15 15 12 11 10 11 12 17 20 20 19
9 9 8 6 6 5 5 4 4 6 5 5 6 6 9 9 10 8 7 8 10 8 8 9 9 10 10 10 11 10 11 11 12 13 14 13 13 11 8 11 13 16 17
9 9 8 6 5 4 3 3 3 4 4 4 5 6 9 8 10 9 7 9 9 8 8 9 11 10 10 10 12 12 10 12 11 9 10 9 11 13 9 11 10 10 15
10 9 8 6 5 3 3 2 2 4 3 4 4 7 7 8 9 9 7 8 9 9 10 11 10 12 9 10 10 11 11 12 11 8 8 10 12 13 11 8 8 8 8
11 9 8 7 6 5 4 3 3 3 2 2 3 5 7 9 9 9 10 9 10 9 11 11 12 9 9 9 9 12 8 10 4 11 11 7 13 9 9 11 13 13 10
13 11 9 7 6 5 4 2 1 0 2 2 6 5 7 8 8 9 9 9 10 9 8 10 10 12 9 9 10 7 7 6 14 9 13 12 9 8 11 12 12 12 12
14 11 10 8 7 5 4 3 4 3 4 5 5 6 7 8 7 7 8 8 9 8 9 9 9 9 10 10 8 8 11 13 9 12 8 10 13 14 12 8 10 12 13
14 12 10 9 7 5 4 3 2 3 4 5 6 8 9 7 8 8 8 9 9 8 9 11 11 11 9 9 9 8 10 10 12 13 17 10 10 10 11 10 11 11 12
14 13 11 10 7 6 4 3 3 4 6 6 7 7 7 7 7 9 9 10 10 10 10 10 11 13 12 11 10 11 10 10 10 11 14 16 16 12 11 11 11 10 10
Wind_Direction
320 321 318 313 101 39 61 68 59 55 58 60 66 69 68 59 56 58 60 60 56 50 47 45 45 40 37 39 36 35 35 35 35 36 35 49 52 48 44 26 355 75 66
305 309 311 75 70 70 58 58 56 55 57 56 57 59 60 61 61 58 53 50 49 51 49 45 42 41 38 34 32 30 31 29 19 2 10 92 62 43 36 27 23 76 75
315 324 354 49 57 57 54 47 48 51 54 53 57 62 59 57 54 52 48 45 42 41 41 41 41 37 34 33 32 27 24 16 0 335 314 88 86 51 41 26 19 51 78
315 3 26 41 48 52 51 50 51 50 48 50 52 52 52 53 50 47 45 41 39 34 34 31 31 35 32 24 23 29 22 8 346 325 8 30 48 52 30 25 22 32 53
18 30 32 40 46 49 53 53 53 53 51 48 49 50 48 48 47 45 45 42 38 36 34 29 26 24 24 19 17 19 16 2 334 307 2 51 332 40 13 3 19 104 207
34 44 30 41 48 51 52 52 53 52 50 51 50 49 50 47 45 44 42 40 36 34 32 31 27 25 22 20 19 19 9 353 321 354 0 11 348 21 0 0 343 325 285
50 50 48 43 46 49 50 49 49 51 52 52 51 50 49 48 47 44 42 38 35 32 29 27 25 24 22 21 18 12 1 346 327 315 346 349 53 26 352 349 341 283 270
56 42 69 70 55 49 52 52 52 52 51 51 49 49 48 47 42 43 36 33 30 30 26 23 21 21 19 18 16 7 354 340 322 325 8 325 32 7 343 339 338 322 259
47 63 58 58 87 83 55 52 50 49 48 47 44 44 49 43 43 39 36 29 25 24 21 20 17 14 8 11 11 2 344 324 311 342 335 16 18 356 332 325 326 331 278
48 45 47 49 54 60 68 54 51 50 45 46 42 35 37 45 33 39 31 25 23 20 18 15 12 9 3 5 7 353 331 313 353 328 341 24 8 347 329 322 318 312 312
69 48 43 39 44 49 52 52 52 46 44 39 32 27 33 35 28 32 29 21 23 14 15 11 8 5 355 359 4 340 316 350 332 331 337 30 3 345 339 333 320 310 303
63 56 50 45 48 56 59 53 49 45 45 38 30 29 27 29 27 19 22 20 15 10 10 4 2 2 359 353 349 341 346 336 324 320 311 23 345 328 328 327 328 319 304
91 76 63 62 48 51 55 45 42 44 38 37 30 23 23 23 17 17 11 13 8 8 9 1 358 2 351 348 344 336 335 331 320 319 315 341 327 318 315 313 312 313 313
100 91 78 64 59 55 53 49 47 41 38 35 31 23 17 18 16 10 10 9 8 2 0 357 351 347 346 342 338 334 330 327 319 316 312 326 326 313 309 306 303 301 300
122 100 78 71 66 62 57 55 51 46 41 41 35 27 20 20 13 5 7 7 6 358 356 351 347 341 339 337 335 329 326 322 318 311 312 310 308 308 305 302 299 295 292
119 101 89 76 69 67 67 65 58 51 45 41 44 32 28 18 10 6 2 2 360 352 347 343 341 339 334 331 329 326 321 317 315 313 307 304 302 301 300 296 296 295 294
116 110 99 90 76 81 76 69 65 57 58 50 37 38 25 22 8 359 358 357 357 346 343 341 339 337 330 331 323 320 319 319 310 304 301 297 298 295 291 301 299 295 293
134 123 105 97 94 82 77 66 67 52 51 43 37 27 18 19 9 358 357 357 349 342 340 345 341 337 334 329 324 321 321 311 303 300 299 298 295 293 294 293 293 294 294
142 135 122 109 93 93 90 78 69 50 44 38 31 22 14 12 6 354 353 350 345 343 341 343 340 337 330 326 320 322 313 302 309 300 294 288 286 285 287 289 337 331 294
152 139 132 115 103 98 97 108 88 73 42 43 24 18 9 3 359 350 348 347 345 341 342 339 337 335 329 325 322 313 315 293 280 283 294 316 328 323 331 336 333 309 346
161 157 144 126 95 81 66 47 56 22 32 20 16 5 5 356 357 346 348 344 345 343 338 336 335 333 331 329 319 324 305 283 317 303 355 328 308 301 326 323 321 323 322
166 155 149 133 111 83 71 53 25 358 8 352 358 352 4 353 352 345 346 343 342 335 332 336 335 330 322 335 324 314 328 313 47 337 308 324 327 313 313 326 315 308 311
171 166 154 140 119 93 81 80 22 174 275 356 353 348 349 343 343 340 336 331 326 324 320 318 322 319 318 317 319 317 322 313 325 283 334 305 315 333 314 300 301 307 319
174 157 154 144 132 116 89 80 37 8 343 350 335 330 329 331 327 323 317 316 316 310 308 311 314 312 305 305 306 292 284 294 298 300 284 304 300 289 290 300 301 304 301
161 162 159 148 140 127 109 63 11 5 347 336 326 324 322 325 321 317 315 316 312 311 308 307 308 308 301 296 295 299 289 285 282 282 295 292 292 299 293 302 304 295 294
164 165 160 155 146 137 124 95 31 357 340 324 322 319 323 320 317 316 322 319 313 310 310 309 304 299 296 291 286 284 283 284 287 285 285 290 293 291 288 285 288 290 289